EW6230 Weather Reports


time (UTC)temp
F
wind
direction
speed
knots
gust
knots
rain 1hr
in
rain 24hr
in
rain mn
in
humidity
%
barometer
mb
20220629034514 56 153 0.0 0.0 0.00 0.00 0.00 1 1015.1
20220629033014 57 153 0.0 0.0 0.00 0.00 0.00 1 1015.1
20220629031506 57 153 0.0 0.0 0.00 0.00 0.00 1 1014.8
20220629030002 57 155 0.0 0.0 0.00 0.00 0.00 1 1014.6
20220629024557 58 155 0.0 0.0 0.00 0.00 0.00 1 1014.5
20220629023102 58 155 0.0 0.0 0.00 0.00 0.00 1 1014.4
20220629021548 58 155 0.0 0.0 0.00 0.00 0.00 1 1014.3
20220629020047 59 95 0.0 0.0 0.00 0.00 0.00 1 1014.1
20220629014540 59 111 0.0 0.0 0.00 0.00 0.00 1 1014.1
20220629013035 59 109 0.0 0.0 0.00 0.00 0.00 1 1014.0
20220629011543 58 147 0.0 0.0 0.00 0.00 0.00 1 1014.0
20220629010026 58 145 0.0 0.0 0.00 0.00 0.00 1 1014.2
20220629004522 58 161 0.0 0.0 0.00 0.00 0.00 1 1014.3
20220629003016 58 161 0.0 0.0 0.00 0.00 0.00 1 1014.3
20220629001515 58 170 0.0 0.0 0.00 0.00 0.00 1 1014.3
20220629000008 59 170 0.0 0.0 0.00 0.00 0.00 1 1014.3
20220628234504 59 148 0.0 0.0 0.00 0.00 0.00 1 1014.1
20220628233110 59 89 0.0 0.0 0.00 0.00 0.00 1 1014.0
20220628231555 59 89 0.0 0.0 0.00 0.00 0.00 2 1014.0
20220628230052 59 89 0.0 0.0 0.00 0.00 0.00 24 1014.0
20220628224559 59 89 0.0 0.0 0.00 0.00 0.00 43 1013.9
20220628223044 60 89 0.0 0.0 0.00 0.00 0.00 50 1013.8
20220628221539 60 89 0.0 0.0 0.00 0.00 0.00 52 1013.6
20220628220035 61 89 0.0 0.0 0.00 0.00 0.00 47 1013.4
20220628214530 61 89 0.0 0.0 0.00 0.00 0.00 54 1013.5
20220628213026 61 89 0.0 0.0 0.00 0.00 0.00 53 1013.5
20220628211523 61 89 0.0 0.0 0.00 0.00 0.00 58 1013.3
20220628210018 63 89 0.0 0.0 0.00 0.00 0.00 58 1013.3
20220628204515 63 89 0.0 0.0 0.00 0.00 0.00 61 1013.3
20220628203008 63 89 0.0 0.0 0.00 0.00 0.00 59 1013.3
20220628201506 63 87 0.0 0.0 0.00 0.00 0.00 62 1013.3
20220628200005 64 160 0.0 0.0 0.00 0.00 0.00 62 1013.1
20220628194558 66 161 0.0 0.0 0.00 0.00 0.00 61 1013.0
20220628193054 67 88 0.0 0.0 0.00 0.00 0.00 62 1012.8
20220628191549 66 106 0.0 0.0 0.00 0.00 0.00 62 1012.9
20220628190045 65 73 0.0 0.0 0.00 0.00 0.00 62 1013.1
20220628184546 65 320 0.0 0.0 0.00 0.00 0.00 62 1013.2
20220628183035 65 320 0.0 0.0 0.00 0.00 0.00 62 1013.1
20220628181533 66 222 0.0 0.0 0.00 0.00 0.00 62 1013.2
20220628180035 66 222 0.0 0.0 0.00 0.00 0.00 61 1013.0
20220628174525 65 262 0.0 0.0 0.00 0.00 0.00 62 1012.9
20220628173019 64 264 0.0 0.0 0.00 0.00 0.00 62 1012.8
20220628171517 62 221 0.0 0.0 0.00 0.00 0.00 52 1012.6
20220628170011 62 203 0.0 0.0 0.00 0.00 0.00 58 1012.7
20220628164507 63 115 0.0 0.0 0.00 0.00 0.00 62 1012.6
20220628163003 64 179 0.0 0.0 0.00 0.00 0.00 61 1012.5
20220628161600 63 123 0.0 0.0 0.00 0.00 0.00 57 1012.5
20220628160059 62 123 0.0 0.0 0.00 0.00 0.00 52 1012.5
20220628154553 60 122 0.0 0.0 0.00 0.00 0.00 10 1012.3
20220628153044 59 162 0.0 0.0 0.00 0.00 0.00 10 1012.3
20220628151539 60 162 0.0 0.0 0.00 0.00 0.00 1 1012.1
20220628150035 57 162 0.0 0.0 0.00 0.00 0.00 1 1011.9
20220628144531 56 162 0.0 0.0 0.00 0.00 0.00 1 1011.8
20220628143033 56 163 0.0 0.0 0.00 0.00 0.00 1 1011.7
20220628141523 55 163 0.0 0.0 0.00 0.00 0.00 1 1011.6
20220628140018 55 163 0.0 0.0 0.00 0.00 0.00 1 1011.5
20220628134513 54 162 0.0 0.0 0.00 0.00 0.00 1 1011.4
20220628133008 54 162 0.0 0.0 0.00 0.00 0.00 1 1011.3
20220628131503 54 162 0.0 0.0 0.00 0.00 0.00 1 1011.1
20220628130100 53 162 0.0 0.0 0.00 0.00 0.00 1 1010.8
20220628124559 53 163 0.0 0.0 0.00 0.00 0.00 1 1010.8
20220628123051 53 162 0.0 0.0 0.00 0.00 0.00 1 1010.7
20220628121546 52 162 0.0 0.0 0.00 0.00 0.00 1 1010.8
20220628120042 51 162 0.0 0.0 0.00 0.00 0.00 1 1010.7
20220628114539 51 163 0.0 0.0 0.00 0.00 0.00 1 1010.6
20220628113033 51 163 0.0 0.0 0.00 0.00 0.00 1 1010.5
20220628111529 51 163 0.0 0.0 0.00 0.00 0.00 1 1010.5
20220628110024 51 163 0.0 0.0 0.00 0.00 0.00 1 1010.4
20220628104521 51 162 0.0 0.0 0.00 0.00 0.00 1 1010.3
20220628103015 51 165 0.0 0.0 0.00 0.00 0.00 1 1010.2
20220628101513 51 199 0.0 0.0 0.00 0.00 0.00 1 1010.2
20220628100008 51 198 0.0 0.0 0.00 0.00 0.00 1 1010.4
20220628094502 51 199 0.0 0.0 0.00 0.00 0.00 1 1010.3
20220628093058 51 199 0.0 0.0 0.00 0.00 0.00 1 1010.4
20220628091602 52 199 0.0 0.0 0.00 0.00 0.00 1 1010.3
20220628090050 52 243 0.0 0.0 0.00 0.00 0.00 1 1010.3
20220628084545 52 243 0.0 0.0 0.00 0.00 0.00 1 1010.3
20220628083040 52 241 0.0 0.0 0.00 0.00 0.00 1 1010.2
20220628081536 52 240 0.0 0.0 0.00 0.00 0.00 1 1010.3
20220628080032 53 240 0.0 0.0 0.00 0.00 0.00 1 1010.3
20220628074529 53 245 0.0 0.0 0.00 0.00 0.00 1 1010.4
20220628073023 53 245 0.0 0.0 0.00 0.00 0.00 1 1010.2
20220628071529 54 245 0.0 0.0 0.00 0.00 0.00 1 1010.0
20220628070014 54 226 0.0 0.0 0.00 0.00 0.00 1 1010.0
20220628064511 55 226 0.0 0.0 0.00 0.00 0.00 1 1009.9
20220628063005 56 230 0.0 0.0 0.00 0.00 0.00 1 1009.8
20220628061601 56 230 0.0 0.0 0.00 0.00 0.00 1 1009.7
20220628060100 56 63 0.0 0.0 0.00 0.00 0.00 1 1009.4
20220628054554 56 289 0.0 0.0 0.00 0.00 0.00 1 1009.3
20220628053047 57 347 0.0 0.0 0.00 0.00 0.00 1 1009.3
20220628051543 57 266 0.0 0.0 0.00 0.00 0.00 1 1009.4
20220628050043 57 278 0.0 0.0 0.00 0.00 0.00 1 1009.2
20220628044535 58 277 0.0 0.0 0.00 0.00 0.00 1 1009.2
20220628043036 59 278 0.0 0.0 0.00 0.00 0.00 11 1009.0
20220628041531 60 292 0.0 0.0 0.00 0.00 0.00 24 1009.0
20220628040032 61 125 0.0 0.0 0.00 0.00 0.00 38 1008.8